Hauptseite
METAR-TAF:

METAR-TAF

Flughäfen :

Flughafen Morlaix

Morlaix, Frankreich

Breite: 48-36N, Länge: 3-49W, Höhe: 84 m

Beobachtung

Neuester Wetterbericht von vor 8 Stunden und 34 Minuten, um 18:00 UTC
Wind 12 kt aus Ost
Temperatur 7°C
Luftfeuchtigkeit 93%
Luftdruck 1018 hPa
Sichtweite 10 km oder mehr

METAR: LFRU 171800Z AUTO 10012KT 9999 VV/// 07/06 Q1018

Zeit: 03:34 (02:34 UTC)


TAF: fehlend

Wetterbeobachtungen und Prognosen von mehr als 4000 Flughäfen (METAR und TAF Bericht).

Die verfügbaren Stationen werden durch gelbe und rote Markierungen auf der Karte dargestellt.

Führen Sie die Maus auf sie, um den Namen der Station zu sehen.

Darauf klicken, um die Beobachtung von Wetterbeobachtungen und Prognosen zu sehen.

Um die Karte zu ändern : klicken Sie auf den grünen Tasten mit einem schwarzen Kreuz Zum Vergrößern, auf den grünen Button mit einem Gedankenstrich zu verkleinern, oder auf die grünen Pfeile für benachbarte Karten.


METAR-TAF: